ABS111 FGSL-FOOL

Flight info

Callsign ABS111
Flight time N/A
Altitude 15000
Route MBO DCT APOPA AGTEN1B
Aircraft AT76/M-SDFGIRY/S

Departure

Time 2026-05-01 11:38
Airport Malabo International Airport (FGSL)

Arrival

Time N/A
Airport Libreville Leon M'ba International Airport (FOOL)
Time Latitude Longitude Altitude Speed Heading
2026-05-01 11:11 3.76182 8.71812 66 ft 0 kts 312°
2026-05-01 11:31 3.76183 8.71812 66 ft 0 kts 311°
2026-05-01 11:32 3.76187 8.71810 62 ft 1 kts 339°
2026-05-01 11:32 3.76201 8.71814 66 ft 4 kts 27°
2026-05-01 11:32 3.76235 8.71840 66 ft 8 kts 37°
2026-05-01 11:32 3.76282 8.71860 63 ft 8 kts 358°
2026-05-01 11:33 3.76339 8.71860 65 ft 8 kts
2026-05-01 11:33 3.76393 8.71877 62 ft 9 kts 18°
2026-05-01 11:33 3.76448 8.71857 64 ft 9 kts 316°
2026-05-01 11:33 3.76481 8.71818 62 ft 8 kts 301°
2026-05-01 11:34 3.76480 8.71763 60 ft 8 kts 254°
2026-05-01 11:34 3.76466 8.71713 57 ft 6 kts 254°
2026-05-01 11:34 3.76448 8.71686 54 ft 5 kts 221°
2026-05-01 11:34 3.76440 8.71679 57 ft 0 kts 220°
2026-05-01 11:36 3.76418 8.71660 60 ft 22 kts 221°
2026-05-01 11:37 3.76147 8.71424 58 ft 80 kts 222°
2026-05-01 11:37 3.75609 8.70954 68 ft 124 kts 220°
2026-05-01 11:37 3.74893 8.70369 322 ft 138 kts 225°
2026-05-01 11:37 3.74193 8.69647 603 ft 156 kts 230°
2026-05-01 11:38 3.73384 8.68847 945 ft 161 kts 219°
2026-05-01 11:38 3.72475 8.68103 1043 ft 176 kts 219°
2026-05-01 11:38 3.71528 8.67302 1295 ft 180 kts 219°
2026-05-01 11:38 3.70593 8.66480 1577 ft 181 kts 220°
2026-05-01 11:39 3.69539 8.65840 1866 ft 178 kts 188°
2026-05-01 11:39 3.68384 8.66157 2118 ft 175 kts 138°
2026-05-01 11:39 3.67562 8.67038 2298 ft 176 kts 133°
2026-05-01 11:39 3.66681 8.67901 2527 ft 177 kts 138°
2026-05-01 11:40 3.65736 8.68691 2800 ft 176 kts 142°
2026-05-01 11:40 3.64723 8.69407 3121 ft 178 kts 147°
2026-05-01 11:40 3.63662 8.70031 3427 ft 177 kts 151°
2026-05-01 11:40 3.62565 8.70603 3752 ft 180 kts 152°
2026-05-01 11:41 3.61436 8.71150 4141 ft 180 kts 152°